Total_Precipitation_Accumulation
0.78 0.78 0.79 0.77 0.76 0.74 0.74 0.72 0.73 0.79 0.80 0.83 1.00 1.06 1.14 1.22 1.39 1.65 1.83 1.84 1.76 1.77 1.76 1.84 2.00 2.09 2.31 2.28 2.19 2.08 1.94 1.75 1.61 1.46 1.25 1.06 1.12 1.17 1.21 1.21 1.12 1.06 0.91
0.88 0.87 0.79 0.70 0.67 0.67 0.64 0.57 0.58 0.56 0.55 0.68 0.81 0.86 0.90 0.96 1.14 1.44 1.63 1.67 1.64 1.56 1.55 1.66 1.87 2.03 2.25 2.36 2.32 2.18 2.07 1.91 1.80 1.73 1.55 1.30 1.19 1.23 1.32 1.38 1.32 1.22 1.15
0.92 0.82 0.74 0.68 0.60 0.55 0.49 0.45 0.51 0.53 0.58 0.68 0.78 0.84 0.86 0.92 0.96 1.07 1.23 1.35 1.35 1.29 1.33 1.38 1.43 1.60 1.88 2.08 2.13 2.16 2.18 2.14 2.08 1.93 1.73 1.56 1.40 1.30 1.37 1.39 1.34 1.39 1.28
1.06 0.96 0.85 0.74 0.62 0.57 0.50 0.45 0.44 0.46 0.53 0.60 0.65 0.73 0.81 0.88 0.89 0.91 0.94 1.01 1.03 1.09 1.15 1.20 1.22 1.25 1.45 1.63 1.75 1.97 2.19 2.20 2.17 2.09 1.89 1.67 1.53 1.42 1.46 1.49 1.51 1.48 1.40
1.08 1.07 0.93 0.74 0.61 0.55 0.50 0.43 0.41 0.41 0.43 0.49 0.56 0.60 0.67 0.76 0.85 0.88 0.76 0.73 0.80 0.91 0.95 0.93 0.94 1.02 1.13 1.22 1.29 1.64 1.99 2.15 2.13 2.07 1.94 1.79 1.57 1.47 1.34 1.32 1.48 1.68 1.66
0.99 0.97 0.75 0.58 0.47 0.42 0.41 0.40 0.35 0.35 0.40 0.45 0.46 0.49 0.61 0.66 0.79 0.77 0.61 0.59 0.63 0.74 0.83 0.82 0.73 0.73 0.78 0.84 0.92 1.10 1.37 1.61 1.88 2.03 1.95 1.76 1.58 1.47 1.41 1.42 1.46 1.56 1.63
0.64 0.60 0.51 0.40 0.38 0.41 0.43 0.37 0.35 0.34 0.36 0.39 0.40 0.42 0.48 0.62 0.66 0.52 0.49 0.52 0.60 0.65 0.71 0.77 0.70 0.61 0.68 0.73 0.83 0.90 0.92 0.99 1.27 1.60 1.72 1.69 1.76 1.62 1.57 1.50 1.47 1.51 1.53
0.40 0.40 0.34 0.31 0.32 0.34 0.36 0.34 0.40 0.44 0.42 0.43 0.46 0.47 0.48 0.53 0.51 0.41 0.43 0.47 0.53 0.58 0.66 0.75 0.80 0.72 0.72 0.83 0.84 0.86 0.83 0.78 0.98 1.00 1.17 1.46 1.64 1.72 1.68 1.75 1.90 1.85 1.69
0.12 0.13 0.12 0.12 0.13 0.15 0.16 0.22 0.33 0.40 0.42 0.45 0.49 0.50 0.47 0.45 0.45 0.37 0.39 0.47 0.52 0.57 0.59 0.65 0.72 0.70 0.83 0.91 0.91 1.03 1.01 0.90 1.02 1.08 1.11 1.15 1.27 1.42 1.55 1.62 1.70 1.76 1.73
0.01 0.01 0.01 0.02 0.02 0.04 0.06 0.09 0.16 0.20 0.25 0.33 0.35 0.39 0.43 0.43 0.52 0.41 0.41 0.47 0.56 0.66 0.67 0.65 0.78 0.78 0.84 0.83 0.81 1.03 1.05 0.94 0.86 0.91 0.93 0.91 0.87 0.96 1.17 1.33 1.53 1.61 1.59
0.01 0.00 0.00 0.00 0.00 0.01 0.02 0.04 0.07 0.09 0.13 0.17 0.22 0.28 0.36 0.43 0.52 0.50 0.55 0.57 0.64 0.77 0.75 0.67 0.61 0.71 0.60 0.66 0.70 0.75 0.96 0.96 0.86 0.91 0.93 0.86 0.82 0.82 0.89 1.03 1.27 1.46 1.50
0.01 0.00 0.00 0.00 0.00 0.01 0.01 0.02 0.02 0.04 0.07 0.10 0.12 0.17 0.24 0.30 0.38 0.45 0.46 0.52 0.60 0.70 0.75 0.64 0.61 0.67 0.52 0.50 0.52 0.63 0.76 0.88 0.86 0.90 0.91 0.89 0.80 0.74 0.76 0.85 0.95 1.03 1.09
0.00 0.00 0.01 0.01 0.01 0.01 0.02 0.02 0.02 0.04 0.06 0.08 0.11 0.18 0.24 0.31 0.35 0.32 0.31 0.34 0.42 0.54 0.57 0.59 0.58 0.54 0.50 0.46 0.46 0.53 0.60 0.70 0.86 0.87 0.81 0.79 0.73 0.68 0.69 0.72 0.81 0.87 0.92
0.00 0.00 0.00 0.01 0.01 0.01 0.02 0.03 0.04 0.05 0.07 0.10 0.16 0.22 0.27 0.31 0.34 0.33 0.35 0.38 0.39 0.43 0.43 0.43 0.45 0.48 0.51 0.49 0.46 0.49 0.57 0.67 0.73 0.72 0.67 0.64 0.67 0.69 0.73 0.75 0.79 0.83 0.88
0.00 0.00 0.00 0.01 0.01 0.01 0.01 0.01 0.03 0.04 0.06 0.12 0.20 0.25 0.26 0.26 0.22 0.23 0.35 0.46 0.53 0.59 0.65 0.59 0.60 0.60 0.57 0.51 0.47 0.47 0.52 0.56 0.56 0.55 0.55 0.51 0.51 0.57 0.63 0.68 0.74 0.74 0.76
0.00 0.00 0.00 0.01 0.01 0.02 0.02 0.01 0.01 0.03 0.06 0.08 0.09 0.12 0.14 0.14 0.14 0.18 0.25 0.36 0.45 0.58 0.74 0.77 0.81 0.83 0.76 0.65 0.55 0.47 0.42 0.43 0.45 0.48 0.50 0.51 0.48 0.50 0.57 0.60 0.65 0.67 0.66
0.00 0.00 0.00 0.01 0.01 0.01 0.02 0.04 0.06 0.05 0.03 0.03 0.03 0.05 0.12 0.20 0.24 0.29 0.31 0.35 0.39 0.54 0.74 0.80 0.80 0.79 0.72 0.65 0.60 0.51 0.43 0.39 0.41 0.41 0.41 0.44 0.45 0.47 0.53 0.56 0.56 0.58 0.61
0.00 0.00 0.01 0.03 0.05 0.06 0.07 0.10 0.15 0.19 0.17 0.09 0.04 0.04 0.07 0.16 0.20 0.24 0.32 0.44 0.46 0.54 0.65 0.67 0.65 0.54 0.46 0.43 0.40 0.36 0.32 0.31 0.32 0.32 0.31 0.33 0.38 0.40 0.43 0.49 0.54 0.54 0.56
0.00 0.01 0.03 0.08 0.10 0.09 0.10 0.14 0.16 0.13 0.11 0.10 0.09 0.07 0.07 0.10 0.13 0.15 0.25 0.44 0.45 0.39 0.36 0.34 0.32 0.30 0.27 0.26 0.26 0.25 0.24 0.23 0.22 0.22 0.22 0.23 0.28 0.33 0.37 0.41 0.48 0.52 0.53
0.01 0.01 0.03 0.08 0.11 0.09 0.09 0.10 0.10 0.08 0.07 0.08 0.10 0.11 0.13 0.15 0.17 0.18 0.21 0.26 0.24 0.20 0.19 0.20 0.21 0.21 0.22 0.23 0.23 0.23 0.22 0.21 0.21 0.21 0.21 0.23 0.26 0.30 0.34 0.40 0.46 0.50 0.51
0.01 0.02 0.03 0.05 0.08 0.07 0.07 0.07 0.07 0.08 0.08 0.10 0.10 0.11 0.15 0.21 0.22 0.21 0.23 0.23 0.21 0.20 0.21 0.22 0.21 0.20 0.22 0.24 0.26 0.27 0.26 0.25 0.23 0.23 0.25 0.27 0.28 0.31 0.34 0.42 0.49 0.52 0.54
0.02 0.04 0.05 0.07 0.08 0.06 0.07 0.09 0.12 0.11 0.10 0.12 0.13 0.13 0.17 0.21 0.23 0.22 0.22 0.23 0.22 0.22 0.25 0.28 0.28 0.26 0.25 0.28 0.32 0.32 0.32 0.31 0.29 0.27 0.27 0.29 0.30 0.30 0.33 0.40 0.47 0.53 0.57
0.03 0.04 0.06 0.08 0.09 0.07 0.08 0.11 0.13 0.13 0.12 0.13 0.15 0.16 0.19 0.22 0.24 0.25 0.26 0.25 0.25 0.26 0.27 0.28 0.31 0.30 0.28 0.29 0.34 0.38 0.37 0.35 0.34 0.34 0.34 0.35 0.34 0.33 0.33 0.36 0.40 0.47 0.53
0.05 0.06 0.07 0.09 0.10 0.09 0.11 0.13 0.14 0.13 0.14 0.16 0.17 0.18 0.20 0.22 0.23 0.22 0.24 0.26 0.28 0.29 0.29 0.29 0.29 0.28 0.27 0.29 0.32 0.36 0.39 0.38 0.35 0.34 0.35 0.38 0.39 0.39 0.40 0.43 0.47 0.50 0.55
0.07 0.07 0.08 0.09 0.10 0.10 0.10 0.12 0.14 0.14 0.15 0.17 0.17 0.18 0.20 0.22 0.22 0.22 0.23 0.24 0.26 0.28 0.28 0.30 0.31 0.29 0.27 0.28 0.31 0.35 0.42 0.43 0.40 0.38 0.36 0.37 0.39 0.41 0.46 0.54 0.60 0.63 0.66
0.07 0.08 0.09 0.10 0.11 0.11 0.11 0.13 0.14 0.16 0.17 0.18 0.18 0.19 0.21 0.23 0.23 0.22 0.23 0.23 0.25 0.26 0.25 0.28 0.29 0.28 0.27 0.29 0.32 0.39 0.44 0.41 0.38 0.39 0.37 0.38 0.40 0.41 0.42 0.46 0.49 0.54 0.59